Flag for U.S.A. Weather past 2 weeks in Pittsburgh, Pennsylvania, U.S.A.

Now
36 °F

Mostly cloudy.


Feels Like: 32 °F
Forecast: 36 / 42 °F
Wind: 5 mph from Northwest

Location: Allegheny County Airport

Current Time: Dec 28, 2014 at 3:56:29 PM

Latest Report: Dec 28, 2014 at 2:53 PM


Visibility: 7 mi

Pressure: 30.07 "Hg

Humidity: 82%

Dew point: 31 °F

Location of PittsburghLocation

Historic Weather in Pittsburgh — Graph

°F

Pittsburgh temperature yesterday

Maximum temperature yesterday: 57 °F (at 3:53 PM)
Minimum temperature yesterday: 37 °F (at 4:53 AM)
Average temperature yesterday: 47 °F

Past Weeks' High & Low Weather Summary

 TemperatureHumidityPressure
High61 °F (Dec 24, 3:53 PM)93% (Dec 15, 9:53 AM)30.37 "Hg (Dec 15, 9:53 AM)
Low25 °F (Dec 20, 7:53 AM)26% (Dec 27, 7:53 PM)29.35 "Hg (Dec 24, 7:53 PM)
Average38 °F72%30.08 "Hg
* Reported Dec 13 2:53 PM — Dec 28 2:53 PM, Pittsburgh, Weather by CustomWeather, © 2014

Note: Actual official high and low records may vary slightly from our data, if they occured in-between our weather recording intervals... More about our weather records

Advertising

Pittsburgh weather history for previous 24 hours

 ConditionsComfort  
Time TempWeatherWind HumidityBarometerVisibility
2:53 PM
Dec 28
36 °FMostly cloudy.5 mph82%30.07 "Hg7 mi
1:53 PM36 °FLow clouds.7 mph85%30.05 "Hg7 mi
12:53 PM36 °FFog.6 mph85%30.04 "Hg1 mi
12:00 PM37 °FMostly cloudy.6 mph82%30.03 "Hg10 mi
10:53 AM37 °FLow clouds.9 mph86%30.07 "Hg10 mi
9:53 AM38 °FFog.9 mph86%30.05 "Hg5 mi
8:53 AM39 °FLow clouds.14 mph86%30.04 "Hg7 mi
7:53 AM40 °FLight rain. Fog.15 mph86%30.02 "Hg4 mi
6:53 AM46 °FFog.10 mph86%29.98 "Hg3 mi
6:02 AM46 °FLight rain. Fog.7 mph86%29.94 "Hg4 mi
5:53 AM46 °FLight rain. Fog.7 mph86%29.96 "Hg4 mi
4:53 AM45 °FLight rain. Fog.7 mph90%29.94 "Hg5 mi
3:53 AM45 °FLight rain. Fog.9 mph90%29.98 "Hg3 mi
2:53 AM46 °FLight rain. Mostly cloudy.8 mph83%29.99 "Hg6 mi
1:53 AM45 °FMostly cloudy.9 mph82%29.98 "Hg10 mi
12:53 AM45 °FLight rain. Mostly cloudy.9 mph80%29.99 "Hg2 mi
11:53 PM
Dec 27
52 °FOvercast.6 mph31%29.98 "Hg10 mi
10:53 PM53 °FMostly cloudy.10 mph35%30.00 "Hg10 mi
9:53 PM53 °FOvercast.8 mph27%30.04 "Hg10 mi
8:53 PM52 °FMostly cloudy.7 mph28%30.06 "Hg10 mi
7:53 PM53 °FOvercast.7 mph26%30.09 "Hg10 mi
6:53 PM51 °FClear.6 mph29%30.09 "Hg10 mi
5:53 PM53 °FClear.9 mph31%30.11 "Hg10 mi
4:53 PM55 °FScattered clouds.9 mph33%30.11 "Hg10 mi
3:53 PM57 °FPassing clouds.13 mph32%30.09 "Hg10 mi
Weather by CustomWeather, © 2014

See weather overviewHow to use our weather pages